Regional Weather Roundup
Issued by NWS Newport/Morehead, NC

Home | Current Version | Previous Version | Text Only | Print | Product List | Glossary On
Versions: 1 2 3 4 5 6 7 8 9 10 11 12 13 14 15 16 17 18 19 20 21 22 23 24 25 26 27 28 29 30 31 32 33 34 35 36 37 38 39 40 41 42 43 44 45 46 47 48 49 50
673
ASUS42 KMHX 280125
RWRMHX
WEATHER ROUNDUP FOR EASTERN NORTH CAROLINA
NATIONAL WEATHER SERVICE NEWPORT/MOREHEAD CITY NC
900 PM EDT SAT AUG 27 2016

NOTE: "FAIR" INDICATES FEW OR NO CLOUDS BELOW 12,000 FEET
WITH NO SIGNIFICANT WEATHER AND/OR OBSTRUCTIONS TO VISIBILITY

NCZ015>017-031-032-045>047-102-103-280200-
NORTH COAST

CITY           SKY/WX    TMP DP  RH WIND       PRES   REMARKS
EDENTON        CLEAR     80  73  80 CALM      30.13R
ELIZABETH CITY CLEAR     79  75  87 NE10      30.13R
KITTY HAWK     CLEAR     79  79 100 NE6       30.10R
MANTEO         CLOUDY    79  78  97 E10       30.11R

$$

NCZ045>047-081-094-103-104-280200-
CENTRAL COAST

CITY           SKY/WX    TMP DP  RH WIND       PRES   REMARKS
FRISCO         CLEAR     80  76  87 NE5       30.09R

$$

NCZ095-097-098-100-101-280200-
SOUTHERN COAST

CITY           SKY/WX    TMP DP  RH WIND       PRES   REMARKS
BEAUFORT       CLEAR     80  76  87 CALM      30.09R
CEDAR ISLAND   NOT AVBL
JACKSONVILLE   MOCLDY    81  75  82 CALM      30.10R
PINEY ISLAND   NOT AVBL
WILMINGTON     CLOUDY    82  75  79 CALM      30.09R


$$

NCZ011>013-027>030-043-044-078>080-089-090>093-098-280200-
COASTAL PLAIN

CITY           SKY/WX    TMP DP  RH WIND       PRES   REMARKS
AHOSKIE        CLEAR     78  72  80 N3        30.14R
CLINTON        CLOUDY    78  77  95 CALM      30.12R
ELIZABETHTOWN  LGT RAIN  81  72  73 CALM      30.11R
GOLDSBORO      CLEAR     83  78  84 S2        30.10R
GREENVILLE     CLEAR     82  72  69 E6        30.13R
HAVELOCK       PTCLDY    80  75  84 CALM      30.11R
KENANSVILLE    CLOUDY    77  73  88 CALM      30.12R
KINSTON        MOCLDY    82  73  74 S3        30.12R
NEW BERN       CLEAR     82  75  79 CALM      30.11R
RICHLANDS      PTCLDY    77  77 100 CALM      30.12R FOG
ROCKY MOUNT    PTCLDY    82  70  66 CALM      30.12R
WASHINGTON     CLEAR     79  71  76 NE3       30.12R
WHITEVILLE     PTCLDY    81  74  80 CALM      30.09R

$$

AMZ130-135-150-152-154-156-158-170-250-252-270-ANZ085-086-088-633-658-670-280200-
MARINE OBSERVATIONS

STATION/POSITION TIME  TEMP    WIND        PRES    WAVE   SWELL
                       AIR SEA DIR/SP/G            HT/PER HT/PER
                 (UTC) (F)     (DEG/KT/KT) (MB)    (FT/S) (FT/S)
CHESAPEAKE LIGHT NOT AVBL
64 E VA BEACH    0050   80 81   40/ 14/ 16 1019.3    3/ 8   2/ 8
DUCK             0000   80 80   50/ 12/ 15 1018.5
2 E DUCK         0011      79                N/A     3/ 9
OREGON INLET     0000   81 81   40/  9/ 12 1018.7
13E OREGON INLT  0100      82                N/A     3/ 9   2/ 9
HATTERAS CG      0000   82 85   60/  7/  9 1017.9
DIAMOND BUOY     0050   83 85   50/  8/ 10 1018.5    3/ 9   3/ 9
CAPE LOOKOUT     0100   82      70/  8/  9 1018.7
BEAUFORT LAB     0000   83 82   60/  4/  6 1017.4
30 SE NEW RVR IN 0108   83 85  130/  8/ 10 1018.9
30 SE NEW RVR IN 0025      84                N/A     3/ 9
27 SE WRIGHTSVLE 0108   83 85  100/  4/  8 1019.2
5 SE WRIGHTSVLE  0008   83 84  140/  4/  8 1018.9
225 S CAPE HAT   0050   83 84   70/ 14/ 16 1016.5    4/ 8   3/ 8
41 SE CHARLESTON 0050   84 84   80/ 12/ 12 1017.1    4/ 9   3/ 9

$$




USA.gov is the U.S. government's official web portal to all federal, state and local government web resources and services.